N1OTX Weather Reports


Display with metric or nautical units.
time (UTC)temp
F
wind
direction
speed
MPH
gust
MPH
rain 1hr
in
rain 24hr
in
rain mn
in
humidity
%
barometer
mb
20191020023016 39 0.0 1.0 0.00 0.00 0.00 92 1016.7
20191020022535 39 0.0 0.0 0.00 0.00 0.00 92 1016.8
20191020022056 39 0.0 1.0 0.00 0.00 0.00 91 1016.8
20191020021517 39 0.0 0.0 0.00 0.00 0.00 91 1016.7
20191020021015 39 0.0 1.0 0.00 0.00 0.00 91 1016.6
20191020020515 39 0.0 0.0 0.00 0.00 0.00 91 1016.7
20191020020015 39 0.0 0.0 0.00 0.00 0.00 91 1016.7
20191020015515 39 0.0 0.0 0.00 0.00 0.00 91 1016.6
20191020015015 39 0.0 0.0 0.00 0.00 0.00 90 1016.6
20191020014515 39 0.0 0.0 0.00 0.00 0.00 91 1016.5
20191020014016 39 0.0 0.0 0.00 0.00 0.00 91 1016.4
20191020013515 39 0.0 0.0 0.00 0.00 0.00 90 1016.4
20191020013015 40 0.0 0.0 0.00 0.00 0.00 90 1016.4
20191020012515 40 0.0 0.0 0.00 0.00 0.00 90 1016.4
20191020012016 40 0.0 1.0 0.00 0.00 0.00 90 1016.3
20191020011515 40 0.0 0.0 0.00 0.00 0.00 90 1016.3
20191020011036 40 0.0 0.0 0.00 0.00 0.00 89 1016.3
20191020010535 40 0.0 0.0 0.00 0.00 0.00 89 1016.4
20191020010056 41 0.0 1.0 0.00 0.00 0.00 89 1016.3
20191020005516 41 0.0 1.0 0.00 0.00 0.00 89 1016.3
20191020005015 41 0.0 0.0 0.00 0.00 0.00 89 1016.4
20191020004515 41 0.0 0.0 0.00 0.00 0.00 88 1016.4
20191020004015 41 0.0 0.0 0.00 0.00 0.00 88 1016.4
20191020003519 41 0.0 0.0 0.00 0.00 0.00 88 1016.4
20191020003017 41 0.0 0.0 0.00 0.00 0.00 87 1016.4
20191020002536 42 0.0 0.0 0.00 0.00 0.00 87 1016.3
20191020002015 42 0.0 0.0 0.00 0.00 0.00 86 1016.1
20191020001515 42 0.0 1.0 0.00 0.00 0.00 87 1016.1
20191020001017 42 0.0 0.0 0.00 0.00 0.00 86 1016.1
20191020000556 42 0.0 0.0 0.00 0.00 0.00 86 1016.1
20191020000015 42 0.0 0.0 0.00 0.00 0.00 86 1016.1
20191019235535 43 0.0 0.0 0.00 0.00 0.00 85 1016.2
20191019235036 43 0.0 0.0 0.00 0.00 0.00 85 1016.1
20191019234515 43 0.0 0.0 0.00 0.00 0.00 84 1016.0
20191019234015 43 0.0 0.0 0.00 0.00 0.00 84 1015.7
20191019233515 43 0.0 0.0 0.00 0.00 0.00 83 1015.7
20191019233015 44 0.0 0.0 0.00 0.00 0.00 81 1015.6
20191019232535 44 0.0 1.0 0.00 0.00 0.00 82 1015.5
20191019232015 44 0.0 1.0 0.00 0.00 0.00 83 1015.6
20191019231515 44 0.0 1.0 0.00 0.00 0.00 81 1015.5
20191019231015 45 0.0 0.0 0.00 0.00 0.00 80 1015.5
20191019230515 45 0.0 1.0 0.00 0.00 0.00 80 1015.5
20191019230015 45 0.0 1.0 0.00 0.00 0.00 80 1015.5
20191019225515 45 0.0 1.0 0.00 0.00 0.00 79 1015.4
20191019225015 46 0.0 0.0 0.00 0.00 0.00 78 1015.3
20191019224535 46 0.0 0.0 0.00 0.00 0.00 77 1015.1
20191019224015 46 0.0 0.0 0.00 0.00 0.00 77 1015.3
20191019223515 47 0.0 0.0 0.00 0.00 0.00 76 1015.2
20191019223015 47 0.0 0.0 0.00 0.00 0.00 75 1015.0
20191019222515 47 0.0 1.0 0.00 0.00 0.00 74 1015.1
20191019222015 48 0.0 0.0 0.00 0.00 0.00 74 1015.0
20191019221515 48 0.0 0.0 0.00 0.00 0.00 74 1015.0
20191019221015 49 0.0 1.0 0.00 0.00 0.00 72 1015.0
20191019220515 49 0.0 1.0 0.00 0.00 0.00 73 1014.9
20191019220015 49 0.0 0.0 0.00 0.00 0.00 73 1014.8
20191019215515 50 0.0 1.0 0.00 0.00 0.00 75 1014.8
20191019215015 50 0.0 1.0 0.00 0.00 0.00 72 1014.7
20191019214515 50 0.0 1.0 0.00 0.00 0.00 73 1014.8
20191019214035 51 0.0 1.0 0.00 0.00 0.00 72 1014.7
20191019213515 51 0.0 1.0 0.00 0.00 0.00 72 1014.5
20191019213016 52 0.0 1.0 0.00 0.00 0.00 70 1014.4
20191019212515 52 0.0 1.0 0.00 0.00 0.00 66 1014.4
20191019212015 53 293 1.0 3.0 0.00 0.00 0.00 64 1014.4
20191019211537 54 0.0 2.0 0.00 0.00 0.00 60 1014.5
20191019211037 54 0.0 3.0 0.00 0.00 0.00 58 1014.4
20191019210537 55 0.0 3.0 0.00 0.00 0.00 58 1014.5
20191019210017 56 158 1.0 3.0 0.00 0.00 0.00 55 1014.4
20191019205518 56 180 2.0 3.0 0.00 0.00 0.00 51 1014.4
20191019205017 56 315 1.0 3.0 0.00 0.00 0.00 54 1014.4
20191019204517 56 293 1.0 3.0 0.00 0.00 0.00 51 1014.3
20191019204017 57 293 1.0 3.0 0.00 0.00 0.00 55 1014.4
20191019203517 56 203 1.0 4.0 0.00 0.00 0.00 53 1014.4
20191019203017 57 248 1.0 4.0 0.00 0.00 0.00 53 1014.5
20191019202558 57 338 2.0 4.0 0.00 0.00 0.00 49 1014.5
20191019202017 57 45 1.0 2.0 0.00 0.00 0.00 53 1014.4
20191019201517 58 203 1.0 4.0 0.00 0.00 0.00 49 1014.4
20191019201017 57 225 2.0 4.0 0.00 0.00 0.00 48 1014.3
20191019200517 57 0 2.0 6.0 0.00 0.00 0.00 47 1014.4
20191019200038 57 338 2.0 4.0 0.00 0.00 0.00 51 1014.4
20191019195517 57 225 1.0 3.0 0.00 0.00 0.00 50 1014.3
20191019195017 57 0 1.0 5.0 0.00 0.00 0.00 50 1014.3
20191019194517 57 338 1.0 3.0 0.00 0.00 0.00 50 1014.3
20191019194017 57 338 1.0 3.0 0.00 0.00 0.00 51 1014.4
20191019193517 57 315 1.0 3.0 0.00 0.00 0.00 52 1014.2
20191019193017 57 270 2.0 4.0 0.00 0.00 0.00 51 1014.3
20191019192515 57 338 2.0 6.0 0.00 0.00 0.00 47 1014.3
20191019192017 57 338 2.0 4.0 0.00 0.00 0.00 50 1014.3
20191019191517 57 0 2.0 6.0 0.00 0.00 0.00 50 1014.4
20191019191017 57 0 1.0 3.0 0.00 0.00 0.00 46 1014.5
20191019190517 57 0 1.0 3.0 0.00 0.00 0.00 47 1014.5
20191019190038 57 68 2.0 7.0 0.00 0.00 0.00 46 1014.5
20191019185537 57 180 3.0 8.0 0.00 0.00 0.00 46 1014.5
20191019185015 57 203 3.0 7.0 0.00 0.00 0.00 45 1014.5
20191019184517 57 293 2.0 6.0 0.00 0.00 0.00 49 1014.5
20191019184017 57 315 2.0 7.0 0.00 0.00 0.00 47 1014.5
20191019183517 57 180 2.0 6.0 0.00 0.00 0.00 47 1014.6
20191019183017 57 225 1.0 4.0 0.00 0.00 0.00 47 1014.4
20191019182517 57 293 2.0 5.0 0.00 0.00 0.00 50 1014.4
20191019182017 57 0 1.0 6.0 0.00 0.00 0.00 47 1014.5
20191019181517 57 23 1.0 3.0 0.00 0.00 0.00 46 1014.5
20191019181037 58 203 2.0 5.0 0.00 0.00 0.00 49 1014.6
20191019180517 57 293 2.0 7.0 0.00 0.00 0.00 51 1014.5
20191019180017 56 293 2.0 6.0 0.00 0.00 0.00 50 1014.5
20191019175517 56 45 2.0 5.0 0.00 0.00 0.00 48 1014.5
20191019175037 57 270 2.0 4.0 0.00 0.00 0.00 50 1014.7
20191019174517 57 0 2.0 3.0 0.00 0.00 0.00 48 1014.7
20191019174017 57 338 3.0 8.0 0.00 0.00 0.00 49 1014.7
20191019173516 56 203 3.0 8.0 0.00 0.00 0.00 50 1014.7
20191019173017 57 203 3.0 7.0 0.00 0.00 0.00 52 1014.8
20191019172516 56 203 2.0 4.0 0.00 0.00 0.00 54 1014.9
20191019172017 56 203 2.0 4.0 0.00 0.00 0.00 49 1015.0
20191019171517 55 338 2.0 5.0 0.00 0.00 0.00 54 1015.1
20191019171017 55 23 2.0 5.0 0.00 0.00 0.00 52 1015.2
20191019170517 55 23 2.0 5.0 0.00 0.00 0.00 53 1015.1
20191019170017 55 45 2.0 4.0 0.00 0.00 0.00 55 1015.3
20191019165537 55 0 2.0 5.0 0.00 0.00 0.00 52 1015.4
20191019165017 54 315 2.0 6.0 0.00 0.00 0.00 54 1015.3
20191019164537 54 23 2.0 4.0 0.00 0.00 0.00 55 1015.4
20191019164016 54 338 2.0 6.0 0.00 0.00 0.00 53 1015.4
20191019163517 54 0 2.0 5.0 0.00 0.00 0.00 53 1015.5
20191019163016 54 0 2.0 4.0 0.00 0.00 0.00 54 1015.5
20191019162517 53 338 3.0 8.0 0.00 0.00 0.00 53 1015.5
20191019162016 54 270 3.0 7.0 0.00 0.00 0.00 53 1015.5
20191019161517 54 0 2.0 5.0 0.00 0.00 0.00 58 1015.5
20191019161016 53 315 1.0 3.0 0.00 0.00 0.00 56 1015.5
20191019160517 54 338 2.0 6.0 0.00 0.00 0.00 55 1015.6
20191019160016 53 338 2.0 7.0 0.00 0.00 0.00 59 1015.5
20191019155516 53 338 2.0 4.0 0.00 0.00 0.00 61 1015.6
20191019155016 52 293 2.0 8.0 0.00 0.00 0.00 60 1015.7
20191019154516 52 338 2.0 5.0 0.00 0.00 0.00 57 1015.7
20191019154017 52 0 3.0 9.0 0.00 0.00 0.00 58 1015.7
20191019153516 52 338 2.0 5.0 0.00 0.00 0.00 58 1015.8
20191019153016 51 315 2.0 8.0 0.00 0.00 0.00 60 1015.6
20191019152516 51 0 2.0 8.0 0.00 0.00 0.00 58 1015.6
20191019152037 52 23 2.0 5.0 0.00 0.00 0.00 62 1015.6
20191019151517 51 0 2.0 11.0 0.00 0.00 0.00 61 1015.6
20191019151016 51 315 2.0 4.0 0.00 0.00 0.00 60 1015.6
20191019150516 50 338 2.0 6.0 0.00 0.00 0.00 61 1015.7
20191019150016 51 338 3.0 6.0 0.00 0.00 0.00 60 1015.7
20191019145516 50 315 2.0 4.0 0.00 0.00 0.00 61 1015.7
20191019145016 50 338 2.0 6.0 0.00 0.00 0.00 61 1015.8
20191019144558 50 338 2.0 9.0 0.00 0.00 0.00 62 1015.8
20191019144016 49 338 3.0 8.0 0.00 0.00 0.00 61 1015.8
20191019143516 49 338 2.0 4.0 0.00 0.00 0.00 68 1015.8
20191019143016 49 0 2.0 4.0 0.00 0.00 0.00 62 1015.9
20191019142517 49 315 2.0 5.0 0.00 0.00 0.00 62 1015.7
20191019142017 49 338 2.0 5.0 0.00 0.00 0.00 68 1015.7
20191019141516 49 23 2.0 7.0 0.00 0.00 0.00 66 1015.7
20191019141036 48 338 2.0 7.0 0.00 0.00 0.00 65 1015.6
20191019140516 48 0 3.0 7.0 0.00 0.00 0.00 66 1015.6
20191019140016 47 338 3.0 6.0 0.00 0.00 0.00 66 1015.6
20191019135516 48 338 2.0 5.0 0.00 0.00 0.00 67 1015.6
20191019135017 47 0 3.0 8.0 0.00 0.00 0.00 69 1015.6
20191019134516 47 338 2.0 6.0 0.00 0.00 0.00 68 1015.5
20191019134016 47 338 2.0 5.0 0.00 0.00 0.00 69 1015.6
20191019133517 47 0 2.0 4.0 0.00 0.00 0.00 69 1015.6
20191019133017 46 315 1.0 4.0 0.00 0.00 0.00 72 1015.6
20191019132516 46 338 2.0 3.0 0.00 0.00 0.00 72 1015.7
20191019132016 45 0 1.0 4.0 0.00 0.00 0.00 72 1015.6
20191019131536 45 0 2.0 9.0 0.00 0.00 0.00 73 1015.5
20191019131036 45 68 1.0 3.0 0.00 0.00 0.00 73 1015.6
20191019130516 45 23 1.0 3.0 0.00 0.00 0.00 75 1015.6
20191019130017 45 23 1.0 7.0 0.00 0.00 0.00 75 1015.5
20191019125517 44 338 2.0 4.0 0.00 0.00 0.00 75 1015.5
20191019125037 44 338 2.0 3.0 0.00 0.00 0.00 74 1015.5
20191019124516 44 338 1.0 4.0 0.00 0.00 0.00 76 1015.6
20191019124016 43 45 1.0 4.0 0.00 0.00 0.00 77 1015.4
20191019123517 43 0 1.0 4.0 0.00 0.00 0.00 78 1015.4
20191019123016 42 23 2.0 4.0 0.00 0.00 0.00 78 1015.4
20191019122516 42 0 1.0 5.0 0.00 0.00 0.00 79 1015.3
20191019122016 42 90 1.0 3.0 0.00 0.00 0.00 80 1015.1
20191019121537 41 90 1.0 2.0 0.00 0.00 0.00 80 1015.1
20191019121016 41 180 1.0 2.0 0.00 0.00 0.00 82 1015.1
20191019120537 40 270 1.0 3.0 0.00 0.00 0.00 83 1015.0
20191019120016 40 315 1.0 3.0 0.00 0.00 0.00 84 1015.1
20191019115516 39 0.0 2.0 0.00 0.00 0.00 87 1015.1
20191019115018 38 315 1.0 4.0 0.00 0.00 0.00 89 1015.0
20191019114537 37 203 1.0 2.0 0.00 0.00 0.00 89 1015.0
20191019114016 36 0.0 2.0 0.00 0.00 0.00 91 1014.9
20191019113516 35 0.0 2.0 0.00 0.00 0.00 93 1014.9
20191019113016 35 180 1.0 3.0 0.00 0.00 0.00 93 1014.9
20191019112516 35 0.0 2.0 0.00 0.00 0.00 92 1015.0
20191019112056 34 0.0 1.0 0.00 0.00 0.00 92 1014.8
20191019111516 34 0.0 1.0 0.00 0.00 0.00 92 1014.9
20191019111016 34 0.0 1.0 0.00 0.00 0.00 92 1014.8
20191019110516 34 0.0 1.0 0.00 0.00 0.00 92 1014.8
20191019110016 34 0.0 1.0 0.00 0.00 0.00 92 1014.9
20191019105516 35 0.0 0.0 0.00 0.00 0.00 92 1014.8
20191019105016 35 0.0 0.0 0.00 0.00 0.00 92 1014.8
20191019104516 35 0.0 2.0 0.00 0.00 0.00 91 1014.8
20191019104016 35 0.0 1.0 0.00 0.00 0.00 92 1014.6
20191019103517 35 0.0 1.0 0.00 0.00 0.00 92 1014.6
20191019103016 35 0.0 1.0 0.00 0.00 0.00 92 1014.6
20191019102516 35 0.0 1.0 0.00 0.00 0.00 92 1014.5
20191019102016 34 0.0 1.0 0.00 0.00 0.00 92 1014.5
20191019101516 34 0.0 1.0 0.00 0.00 0.00 92 1014.4
20191019101036 34 0.0 1.0 0.00 0.00 0.00 92 1014.5
20191019100516 34 0.0 0.0 0.00 0.00 0.00 91 1014.5
20191019100037 35 0.0 0.0 0.00 0.00 0.00 92 1014.5
20191019095537 35 0.0 0.0 0.00 0.00 0.00 92 1014.5
20191019095016 35 0.0 0.0 0.00 0.00 0.00 92 1014.6
20191019094516 35 0.0 0.0 0.00 0.00 0.00 92 1014.5
20191019094016 35 0.0 1.0 0.00 0.00 0.00 91 1014.5
20191019093516 35 0.0 0.0 0.00 0.00 0.00 91 1014.5
20191019093016 35 0.0 0.0 0.00 0.00 0.00 91 1014.3
20191019092517 35 0.0 0.0 0.00 0.00 0.00 91 1014.3
20191019092016 35 0.0 1.0 0.00 0.00 0.00 90 1014.3
20191019091516 36 0.0 0.0 0.00 0.00 0.00 91 1014.4
20191019091016 36 0.0 2.0 0.00 0.00 0.00 90 1014.3
20191019090516 36 0.0 1.0 0.00 0.00 0.00 90 1014.3
20191019090016 36 0.0 1.0 0.00 0.00 0.00 90 1014.3
20191019085516 36 135 1.0 2.0 0.00 0.00 0.00 90 1014.2
20191019085016 36 0.0 2.0 0.00 0.00 0.00 89 1014.2
20191019084516 36 135 1.0 2.0 0.00 0.00 0.00 89 1014.1
20191019084017 36 0.0 2.0 0.00 0.00 0.00 90 1014.2
20191019083516 36 0.0 1.0 0.00 0.00 0.00 89 1014.2
20191019083016 36 0.0 2.0 0.00 0.00 0.00 89 1014.1
20191019082516 37 0.0 2.0 0.00 0.00 0.00 89 1014.1
20191019082056 37 0.0 2.0 0.00 0.00 0.00 89 1014.0
20191019081536 37 180 1.0 2.0 0.00 0.00 0.00 88 1014.1
20191019081016 37 0.0 1.0 0.00 0.00 0.00 89 1014.0
20191019080516 37 0.0 1.0 0.00 0.00 0.00 89 1014.1
20191019080016 37 0.0 1.0 0.00 0.00 0.00 89 1013.9
20191019075536 37 0.0 1.0 0.00 0.00 0.00 89 1014.0
20191019075016 37 0.0 1.0 0.00 0.00 0.00 88 1013.8
20191019074515 37 0.0 2.0 0.00 0.00 0.00 88 1013.6
20191019074016 37 0.0 1.0 0.00 0.00 0.00 89 1013.6
20191019073516 37 0.0 2.0 0.00 0.00 0.00 88 1013.6
20191019073015 37 0.0 1.0 0.00 0.00 0.00 88 1013.6
20191019072516 37 0.0 1.0 0.00 0.00 0.00 88 1013.7
20191019072036 37 0.0 1.0 0.00 0.00 0.00 88 1013.6
20191019071516 38 0.0 1.0 0.00 0.00 0.00 88 1013.7
20191019071016 38 0.0 1.0 0.00 0.00 0.00 88 1013.6
20191019070516 38 0.0 1.0 0.00 0.00 0.00 88 1013.6
20191019070015 38 0.0 1.0 0.00 0.00 0.00 87 1013.6
20191019065516 38 0.0 3.0 0.00 0.00 0.00 88 1013.6
20191019065015 38 0.0 1.0 0.00 0.00 0.00 87 1013.5
20191019064516 38 0.0 3.0 0.00 0.00 0.00 88 1013.6
20191019064016 38 203 1.0 3.0 0.00 0.00 0.00 89 1013.7
20191019063536 37 0.0 2.0 0.00 0.00 0.00 90 1013.7
20191019063016 37 0.0 2.0 0.00 0.00 0.00 90 1013.6
20191019062517 38 0.0 1.0 0.00 0.00 0.00 90 1013.6
20191019062036 38 0.0 1.0 0.00 0.00 0.00 89 1013.7
20191019061515 38 0.0 1.0 0.00 0.00 0.00 89 1013.6
20191019061016 38 0.0 1.0 0.00 0.00 0.00 89 1013.7
20191019060516 38 0.0 1.0 0.00 0.00 0.00 89 1013.6
20191019060016 38 0.0 1.0 0.00 0.00 0.00 89 1013.7
20191019055516 38 0.0 1.0 0.00 0.00 0.00 88 1013.7
20191019055016 38 0.0 1.0 0.00 0.00 0.00 89 1013.7
20191019054556 39 0.0 1.0 0.00 0.00 0.00 88 1013.6
20191019054016 39 0.0 1.0 0.00 0.00 0.00 88 1013.6
20191019053516 39 0.0 1.0 0.00 0.00 0.00 88 1013.5
20191019053015 39 0.0 2.0 0.00 0.00 0.00 88 1013.4
20191019052516 39 0.0 1.0 0.00 0.00 0.00 88 1013.3
20191019052015 39 0.0 2.0 0.00 0.00 0.00 88 1013.3
20191019051536 39 0.0 1.0 0.00 0.00 0.00 88 1013.1
20191019051015 39 0.0 1.0 0.00 0.00 0.00 88 1013.1
20191019050515 39 0.0 2.0 0.00 0.00 0.00 87 1013.0
20191019050015 39 0.0 2.0 0.00 0.00 0.00 88 1013.0
20191019045516 39 225 1.0 1.0 0.00 0.00 0.00 87 1013.0
20191019045015 40 0.0 1.0 0.00 0.00 0.00 87 1012.9
20191019044516 40 0.0 1.0 0.00 0.00 0.00 86 1012.9
20191019044036 40 0.0 1.0 0.00 0.00 0.00 86 1012.9
20191019043515 40 0.0 2.0 0.00 0.00 0.00 85 1012.7
20191019043015 41 203 1.0 1.0 0.00 0.00 0.00 85 1012.6
20191019042515 41 203 1.0 1.0 0.00 0.00 0.00 85 1012.6
20191019042015 41 0.0 2.0 0.00 0.00 0.00 84 1012.6
20191019041515 41 203 1.0 2.0 0.00 0.00 0.00 85 1012.6
20191019041015 41 0.0 1.0 0.00 0.00 0.00 86 1012.6
20191019040515 41 0.0 2.0 0.00 0.00 0.00 86 1012.6
20191019040056 40 0.0 1.0 0.00 0.00 0.00 86 1012.5
20191019035516 41 0.0 1.0 0.00 0.00 0.00 85 1012.7
20191019035015 41 0.0 1.0 0.00 0.00 0.00 85 1012.7
20191019034515 41 0.0 1.0 0.00 0.00 0.00 84 1012.7
20191019034016 41 248 1.0 3.0 0.00 0.00 0.00 84 1012.7
20191019033515 41 180 1.0 2.0 0.00 0.00 0.00 85 1012.6
20191019033016 41 0.0 2.0 0.00 0.00 0.00 85 1012.6
20191019032515 41 0.0 1.0 0.00 0.00 0.00 85 1012.5
20191019032016 41 0.0 1.0 0.00 0.00 0.00 85 1012.5
20191019031515 41 0.0 1.0 0.00 0.00 0.00 86 1012.4
20191019031015 40 0.0 2.0 0.00 0.00 0.00 85 1012.5
20191019030516 40 0.0 1.0 0.00 0.00 0.00 85 1012.5
20191019030015 41 0.0 1.0 0.00 0.00 0.00 86 1012.4
20191019025536 41 0.0 1.0 0.00 0.00 0.00 84 1012.5
20191019025015 41 0.0 1.0 0.00 0.00 0.00 84 1012.4
20191019024515 41 0.0 0.0 0.00 0.00 0.00 83 1012.4
20191019024015 42 0.0 1.0 0.00 0.00 0.00 82 1012.5
20191019023515 42 0.0 0.0 0.00 0.00 0.00 81 1012.4